"Period start","avg(HW err(1)/warn(2) (#))","avg(Visibility (m))","avg(Weather code (#))","avg(Precip intensity (mm/h))","min(HW err(1)/warn(2) (#))","max(HW err(1)/warn(2) (#))","std(HW err(1)/warn(2) (#))","med(HW err(1)/warn(2) (#))","min(Visibility (m))","max(Visibility (m))","std(Visibility (m))","med(Visibility (m))","min(Weather code (#))","max(Weather code (#))","std(Weather code (#))","med(Weather code (#))","min(Precip intensity (mm/h))","max(Precip intensity (mm/h))","std(Precip intensity (mm/h))","med(Precip intensity (mm/h))"
2016-08-01 00:00:00,0,45780,0,0.00,0,0,0,0,41809,50000,3195,45609,0,0,0,0,0.00,0.00,0.00,0.00
2016-08-01 00:10:00,1,45135,0,0.00,0,2,1,1,29133,50000,6484,47496,0,0,0,0,0.00,0.00,0.00,0.00
2016-08-01 00:20:00,2,46547,0,0.00,0,2,1,2,32235,50000,5313,48762,0,0,0,0,0.00,0.00,0.00,0.00
2016-08-01 00:30:00,1,48409,0,0.00,0,2,1,1,43608,50000,2056,49220,0,0,0,0,0.00,0.00,0.00,0.00
2016-08-01 00:40:00,1,49508,0,0.00,0,2,1,2,46994,50000,1014,50000,0,0,0,0,0.00,0.00,0.00,0.00
2016-08-01 00:50:00,2,46402,0,0.00,0,2,1,2,38999,50000,4358,49074,0,0,0,0,0.00,0.00,0.00,0.00
2016-08-01 01:00:00,2,41511,0,0.00,2,2,0,2,34313,50000,6294,41367,0,0,0,0,0.00,0.00,0.00,0.00
2016-08-01 01:10:00,2,37946,0,0.00,2,2,0,2,32262,50000,5869,35290,0,0,0,0,0.00,0.00,0.00,0.00
2016-08-01 01:20:00,2,34631,0,0.00,2,2,0,2,18702,50000,10083,31746,0,0,0,0,0.00,0.00,0.00,0.00
2016-08-01 01:30:00,2,40516,0,0.00,2,2,0,2,29771,50000,7413,40413,0,0,0,0,0.00,0.00,0.00,0.00
2016-08-01 01:40:00,2,39066,0,0.00,2,2,0,2,28099,47419,5222,38688,0,0,0,0,0.00,0.00,0.00,0.00
2016-08-01 01:50:00,2,43354,0,0.00,2,2,0,2,34705,50000,5846,44366,0,0,0,0,0.00,0.00,0.00,0.00
2016-08-01 02:00:00,2,37198,0,0.00,2,2,0,2,26782,50000,7031,35346,0,0,0,0,0.00,0.00,0.00,0.00
2016-08-01 02:10:00,1,40678,0,0.00,0,2,1,2,27761,50000,6012,40092,0,0,0,0,0.00,0.00,0.00,0.00
2016-08-01 02:20:00,2,43161,0,0.00,0,2,1,2,38200,50000,3860,41826,0,0,0,0,0.00,0.00,0.00,0.00
2016-08-01 02:30:00,0,41634,0,0.00,0,0,0,0,31582,50000,6225,42455,0,0,0,0,0.00,0.00,0.00,0.00
2016-08-01 02:40:00,0,50000,0,0.00,0,0,0,0,50000,50000,0,50000,0,0,0,0,0.00,0.00,0.00,0.00
2016-08-01 02:50:00,0,49776,0,0.00,0,0,0,0,48311,50000,515,50000,0,0,0,0,0.00,0.00,0.00,0.00
2016-08-01 03:00:00,0,46484,0,0.00,0,0,0,0,36498,50000,3869,46862,0,0,0,0,0.00,0.00,0.00,0.00
2016-08-01 03:10:00,0,49851,0,0.00,0,0,0,0,48784,50000,361,50000,0,0,0,0,0.00,0.00,0.00,0.00
2016-08-01 03:20:00,0,48162,0,0.00,0,0,0,0,43842,50000,2364,49535,0,0,0,0,0.00,0.00,0.00,0.00
2016-08-01 03:30:00,0,46606,0,0.00,0,0,0,0,36379,50000,4414,48568,0,0,0,0,0.00,0.00,0.00,0.00
2016-08-01 03:40:00,0,47632,0,0.00,0,0,0,0,42347,50000,2798,49189,0,0,0,0,0.00,0.00,0.00,0.00
2016-08-01 03:50:00,0,48781,0,0.00,0,0,0,0,46229,50000,1422,49396,0,0,0,0,0.00,0.00,0.00,0.00
2016-08-01 04:00:00,0,49437,0,0.00,0,0,0,0,46780,50000,1106,50000,0,0,0,0,0.00,0.00,0.00,0.00
2016-08-01 04:10:00,0,47639,0,0.00,0,0,0,0,42100,50000,2994,50000,0,0,0,0,0.00,0.00,0.00,0.00
2016-08-01 04:20:00,0,46599,0,0.00,0,0,0,0,42126,50000,2788,47124,0,0,0,0,0.00,0.00,0.00,0.00
2016-08-01 04:30:00,0,42136,0,0.00,0,0,0,0,35357,45747,2799,42970,0,0,0,0,0.00,0.00,0.00,0.00
2016-08-01 04:40:00,0,47728,0,0.00,0,0,0,0,41213,50000,3067,49415,0,0,0,0,0.00,0.00,0.00,0.00
2016-08-01 04:50:00,0,48219,0,0.00,0,0,0,0,44547,50000,2253,49970,0,0,0,0,0.00,0.00,0.00,0.00
2016-08-01 05:00:00,0,46162,0,0.00,0,0,0,0,40729,50000,3219,46574,0,0,0,0,0.00,0.00,0.00,0.00
2016-08-01 05:10:00,0,46318,0,0.00,0,0,0,0,36242,50000,4599,47972,0,0,0,0,0.00,0.00,0.00,0.00
2016-08-01 05:20:00,0,47026,0,0.00,0,0,0,0,43210,50000,2178,47428,0,0,0,0,0.00,0.00,0.00,0.00
2016-08-01 05:30:00,0,45883,0,0.00,0,0,0,0,39483,50000,3629,46604,0,0,0,0,0.00,0.00,0.00,0.00
2016-08-01 05:40:00,0,43294,0,0.00,0,0,0,0,33198,48930,4290,44182,0,0,0,0,0.00,0.00,0.00,0.00
2016-08-01 05:50:00,0,42060,0,0.00,0,0,0,0,31914,49965,5870,42646,0,0,0,0,0.00,0.00,0.00,0.00
2016-08-01 06:00:00,0,48219,0,0.00,0,0,0,0,43979,50000,2197,49191,0,0,0,0,0.00,0.00,0.00,0.00
2016-08-01 06:10:00,0,48591,0,0.00,0,0,0,0,44591,50000,1762,49484,0,0,0,0,0.00,0.00,0.00,0.00
2016-08-01 06:20:00,0,47001,0,0.00,0,0,0,0,41267,50000,2919,47306,0,0,0,0,0.00,0.00,0.00,0.00
2016-08-01 06:30:00,0,48132,0,0.00,0,0,0,0,43056,50000,2534,49410,0,0,0,0,0.00,0.00,0.00,0.00
2016-08-01 06:40:00,0,48730,0,0.00,0,0,0,0,43615,50000,1943,49936,0,0,0,0,0.00,0.00,0.00,0.00
2016-08-01 06:50:00,0,48648,0,0.00,0,0,0,0,42524,50000,2159,49422,0,0,0,0,0.00,0.00,0.00,0.00
"Period start","avg(HW err(1)/warn(2) (#))","avg(Visibility (m))","avg(Weather code (#))","avg(Precip intensity (mm/h))","min(HW err(1)/warn(2) (#))","max(HW err(1)/warn(2) (#))","std(HW err(1)/warn(2) (#))","med(HW err(1)/warn(2) (#))","min(Visibility (m))","max(Visibility (m))","std(Visibility (m))","med(Visibility (m))","min(Weather code (#))","max(Weather code (#))","std(Weather code (#))","med(Weather code (#))","min(Precip intensity (mm/h))","max(Precip intensity (mm/h))","std(Precip intensity (mm/h))","med(Precip intensity (mm/h))"
2016-08-01 07:30:00,1,48039,0,0.00,0,2,1,2,41648,50000,3008,49892,0,0,0,0,0.00,0.00,0.00,0.00
2016-08-01 07:40:00,0,48752,0,0.00,0,0,0,0,46291,50000,1355,49362,0,0,0,0,0.00,0.00,0.00,0.00
2016-08-01 07:50:00,0,47909,0,0.00,0,0,0,0,43649,50000,2278,48620,0,0,0,0,0.00,0.00,0.00,0.00
2016-08-01 08:00:00,0,46393,0,0.00,0,0,0,0,40605,50000,3398,47769,0,0,0,0,0.00,0.00,0.00,0.00
2016-08-01 08:10:00,0,49277,0,0.00,0,0,0,0,47450,50000,827,49590,0,0,0,0,0.00,0.00,0.00,0.00
2016-08-01 08:20:00,0,49803,0,0.00,0,0,0,0,48034,50000,590,50000,0,0,0,0,0.00,0.00,0.00,0.00
2016-08-01 08:30:00,0,49971,0,0.00,0,0,0,0,49708,50000,88,50000,0,0,0,0,0.00,0.00,0.00,0.00
2016-08-01 08:40:00,0,47888,0,0.00,0,0,0,0,40182,50000,2969,49296,0,0,0,0,0.00,0.00,0.00,0.00
2016-08-01 08:50:00,0,49206,0,0.00,0,0,0,0,45418,50000,1506,50000,0,0,0,0,0.00,0.00,0.00,0.00
2016-08-01 09:00:00,0,48622,0,0.00,0,0,0,0,44435,50000,2149,50000,0,0,0,0,0.00,0.00,0.00,0.00
2016-08-01 09:10:00,0,48180,0,0.00,0,0,0,0,45427,50000,1606,48564,0,0,0,0,0.00,0.00,0.00,0.00
2016-08-01 09:20:00,0,48308,0,0.00,0,0,0,0,43399,50000,2287,50000,0,0,0,0,0.00,0.00,0.00,0.00
2016-08-01 09:30:00,0,49977,0,0.00,0,0,0,0,49769,50000,69,50000,0,0,0,0,0.00,0.00,0.00,0.00
2016-08-01 09:40:00,0,50000,0,0.00,0,0,0,0,50000,50000,0,50000,0,0,0,0,0.00,0.00,0.00,0.00
2016-08-01 09:50:00,0,50000,0,0.00,0,0,0,0,50000,50000,0,50000,0,0,0,0,0.00,0.00,0.00,0.00
2016-08-01 10:00:00,0,50000,0,0.00,0,0,0,0,50000,50000,0,50000,0,0,0,0,0.00,0.00,0.00,0.00
2016-08-01 10:10:00,0,49899,0,0.00,0,0,0,0,48991,50000,303,50000,0,0,0,0,0.00,0.00,0.00,0.00
2016-08-01 10:20:00,0,50000,0,0.00,0,0,0,0,50000,50000,0,50000,0,0,0,0,0.00,0.00,0.00,0.00
2016-08-01 10:30:00,0,49873,0,0.00,0,0,0,0,48730,50000,381,50000,0,0,0,0,0.00,0.00,0.00,0.00
2016-08-01 10:40:00,0,42083,24,0.21,0,0,0,0,32175,50000,8022,43350,0,61,30,0,0.00,1.20,0.36,0.00
2016-08-01 10:50:00,0,32864,61,1.60,0,0,0,0,23719,48683,6468,31786,61,61,0,61,0.75,2.95,0.69,1.45
2016-08-01 11:00:00,0,36599,57,1.30,0,0,0,0,30331,43148,4761,36208,52,61,4,61,0.45,3.20,0.82,1.05
2016-08-01 11:10:00,0,49222,37,0.03,0,0,0,0,43392,50000,1967,50000,0,61,24,51,0.00,0.15,0.05,0.00
2016-08-01 11:20:00,0,50000,0,0.00,0,0,0,0,50000,50000,0,50000,0,0,0,0,0.00,0.00,0.00,0.00
2016-08-01 11:30:00,0,50000,0,0.00,0,0,0,0,50000,50000,0,50000,0,0,0,0,0.00,0.00,0.00,0.00
2016-08-01 11:40:00,0,49597,0,0.00,0,0,0,0,46911,50000,917,50000,0,0,0,0,0.00,0.00,0.00,0.00
2016-08-01 11:50:00,0,49766,0,0.00,0,0,0,0,48041,50000,586,50000,0,0,0,0,0.00,0.00,0.00,0.00
2016-08-01 12:00:00,0,49594,0,0.00,0,0,0,0,46631,50000,1009,50000,0,0,0,0,0.00,0.00,0.00,0.00
2016-08-01 12:10:00,0,49297,0,0.00,0,0,0,0,47796,50000,823,49786,0,0,0,0,0.00,0.00,0.00,0.00
2016-08-01 12:20:00,0,50000,0,0.00,0,0,0,0,50000,50000,0,50000,0,0,0,0,0.00,0.00,0.00,0.00
2016-08-01 12:30:00,0,49768,0,0.00,0,0,0,0,48301,50000,523,50000,0,0,0,0,0.00,0.00,0.00,0.00
2016-08-01 12:40:00,0,46818,51,0.17,0,0,0,0,35702,50000,4710,49426,0,61,18,56,0.00,0.95,0.28,0.08
2016-08-01 12:50:00,0,44843,60,0.44,0,0,0,0,35668,50000,4408,45707,51,61,3,61,0.05,1.25,0.38,0.30
2016-08-01 13:00:00,0,37598,52,0.47,0,0,0,0,30978,45689,4029,37364,51,61,3,51,0.15,1.05,0.26,0.38
2016-08-01 13:10:00,0,32143,54,0.81,0,0,0,0,22805,42722,6888,32439,51,61,5,51,0.15,1.85,0.47,0.88
2016-08-01 13:20:00,0,29276,56,0.97,0,0,0,0,22022,42256,5604,28028,52,61,4,52,0.50,1.75,0.41,0.88
2016-08-01 13:30:00,0,22163,56,1.57,0,0,0,0,19773,30130,3085,20954,52,61,4,56,0.90,2.80,0.57,1.45
2016-08-01 13:40:00,0,18832,61,2.64,0,0,0,0,16205,21181,1717,19468,61,61,0,61,1.55,5.90,1.63,1.97
2016-08-01 13:50:00,0,18581,61,2.91,0,0,0,0,15847,22412,1986,18141,61,61,0,61,0.80,6.20,1.47,2.62
2016-08-01 14:00:00,0,17368,61,2.70,0,0,0,0,13643,21246,2195,17716,61,61,0,61,1.65,4.30,0.91,2.50
2016-08-01 14:10:00,0,16193,61,3.72,0,0,0,0,15479,17979,677,16065,61,62,0,61,0.95,16.15,4.43,2.03
2016-08-01 14:20:00,0,17599,61,4.81,0,0,0,0,14276,21067,2056,17312,61,61,0,61,2.80,9.60,2.11,4.03
2016-08-01 14:30:00,0,18958,61,8.05,0,0,0,0,16326,21041,1573,19174,61,62,0,61,2.15,17.75,5.15,7.70
2016-08-01 14:40:00,0,19981,61,7.87,0,0,0,0,11342,25568,4215,20846,61,62,0,61,3.80,13.65,3.06,7.50
2016-08-01 14:50:00,0,12380,61,6.36,0,0,0,0,8793,15925,1715,12334,61,62,0,61,3.10,11.55,2.93,5.15
2016-08-01 15:00:00,0,13473,61,10.11,0,0,0,0,8904,18365,2654,12998,61,62,0,61,2.75,20.75,5.57,9.22
2016-08-01 15:10:00,0,12174,61,9.96,0,0,0,0,10507,13494,1036,12180,61,62,0,61,7.45,19.60,3.37,8.68
2016-08-01 15:20:00,0,14996,61,5.35,0,0,0,0,12814,16873,1291,14828,61,61,0,61,3.90,9.50,1.63,4.75
2016-08-01 15:30:00,0,13925,61,7.58,0,0,0,0,10416,18068,2148,14298,61,62,0,61,4.30,13.20,2.82,7.18
2016-08-01 15:40:00,0,14046,61,6.04,0,0,0,0,10086,16673,2128,14626,61,62,0,61,2.05,13.00,3.11,5.00
2016-08-01 15:50:00,0,10415,62,12.05,0,0,0,0,9068,12539,1121,9904,61,62,0,62,5.40,20.70,4.86,10.95
2016-08-01 16:00:00,0,12943,61,4.15,0,0,0,0,11813,13949,707,13117,61,61,0,61,2.75,6.05,1.01,4.03
2016-08-01 16:10:00,0,18056,61,2.73,0,0,0,0,13368,27919,4032,16787,61,61,0,61,0.90,3.85,1.00,3.12
2016-08-01 16:20:00,0,30480,55,0.94,0,0,0,0,24207,37557,3615,31387,52,61,4,52,0.70,1.40,0.18,0.95
2016-08-01 16:30:00,0,32523,51,0.40,0,0,0,0,25365,46263,5321,32114,51,52,0,51,0.15,0.75,0.16,0.40
2016-08-01 16:40:00,0,28236,53,1.48,0,0,0,0,17796,45849,7982,27504,51,61,3,52,0.45,3.30,1.05,1.00
2016-08-01 16:50:00,0,15800,61,3.65,0,0,0,0,13103,19190,1928,16094,61,61,0,61,2.30,6.90,1.25,3.28
2016-08-01 17:00:00,0,11610,61,5.28,0,0,0,0,9864,13672,980,11552,61,62,0,61,2.20,13.05,2.97,4.92
2016-08-01 17:10:00,0,12155,61,5.41,0,0,0,0,9753,15580,1779,11591,61,62,0,61,2.70,11.65,2.30,4.68
2016-08-01 17:20:00,0,10561,62,13.48,0,0,0,0,8454,13451,1833,9544,61,62,0,62,7.90,18.95,4.06,13.75
2016-08-01 17:30:00,0,7260,62,22.62,0,0,0,0,5068,8832,1209,7407,61,63,1,62,7.45,41.15,11.75,19.12
2016-08-01 17:40:00,0,9712,61,6.33,0,0,0,0,8709,10938,781,9593,61,62,0,61,1.70,12.20,3.85,4.43
2016-08-01 17:50:00,0,12622,56,0.75,0,0,0,0,10140,18096,2218,12121,52,61,4,52,0.25,1.25,0.27,0.75
2016-08-01 18:00:00,0,20796,42,0.11,0,0,0,0,16672,24099,2409,21006,0,61,21,51,0.00,0.30,0.11,0.05
2016-08-01 18:10:00,0,20243,52,0.41,0,0,0,0,16135,24093,2365,19706,51,61,3,52,0.10,0.90,0.23,0.38
2016-08-01 18:20:00,0,23377,51,0.16,0,0,0,0,19503,26511,1998,23534,51,52,0,51,0.05,0.30,0.08,0.15
2016-08-01 18:30:00,0,34000,8,0.00,0,0,0,0,28182,39914,4263,33120,0,41,16,0,0.00,0.00,0.00,0.00
2016-08-01 18:40:00,0,31840,0,0.00,0,0,0,0,26527,36562,2915,31956,0,0,0,0,0.00,0.00,0.00,0.00
2016-08-01 18:50:00,0,34389,0,0.00,0,0,0,0,28111,41074,3883,34298,0,0,0,0,0.00,0.00,0.00,0.00
2016-08-01 19:00:00,0,24263,37,3.59,0,0,0,0,10994,43149,10817,21238,0,62,30,61,0.00,15.95,5.24,1.45
2016-08-01 19:10:00,0,8878,61,11.27,0,0,0,0,7029,12749,1953,7991,61,62,0,61,3.85,26.15,7.12,7.93
2016-08-01 19:20:00,0,15067,61,2.85,0,0,0,0,9101,24744,5643,13574,61,61,0,61,0.10,6.65,2.21,2.58
2016-08-01 19:30:00,0,36273,20,0.01,0,0,0,0,26125,47234,6031,35620,0,52,25,0,0.00,0.05,0.02,0.00
2016-08-01 19:40:00,0,32284,0,0.00,0,0,0,0,26636,38004,3406,32255,0,0,0,0,0.00,0.00,0.00,0.00
2016-08-01 19:50:00,0,20770,0,0.00,0,0,0,0,15156,34794,6197,17848,0,0,0,0,0.00,0.00,0.00,0.00
2016-08-01 20:00:00,0,15228,19,20.27,0,0,0,0,3438,22718,7135,19185,0,63,29,0,0.00,105.95,37.83,0.00
2016-08-01 20:10:00,0,5431,62,36.84,0,0,0,0,3729,6234,936,6095,61,63,1,62,6.45,84.75,24.55,29.02
2016-08-01 20:20:00,0,7920,61,5.29,0,0,0,0,6750,11019,1134,7649,61,62,0,61,1.20,10.75,3.49,3.28
2016-08-01 20:30:00,0,18613,45,0.52,0,0,0,0,10257,26547,5934,17344,0,61,23,52,0.00,1.80,0.55,0.35
2016-08-01 20:40:00,0,13557,38,0.65,0,0,0,0,7838,30590,8021,9286,0,61,25,52,0.00,1.50,0.51,0.70
2016-08-01 20:50:00,0,12379,51,0.36,0,0,0,0,9306,18937,3297,11180,51,52,0,51,0.10,0.75,0.20,0.35
2016-08-01 21:00:00,0,17267,28,0.06,0,0,0,0,13659,21703,2415,16910,0,61,28,26,0.00,0.20,0.07,0.03
2016-08-01 21:10:00,0,17400,52,0.05,0,0,0,0,13509,21617,2493,17548,51,61,3,51,0.00,0.15,0.04,0.05
2016-08-01 21:20:00,0,24302,11,0.00,0,0,0,0,20680,30721,3605,22416,0,61,23,0,0.00,0.00,0.00,0.00
2016-08-01 21:30:00,0,31089,0,0.00,0,0,0,0,23958,41951,5496,29881,0,0,0,0,0.00,0.00,0.00,0.00
2016-08-01 21:40:00,0,32845,0,0.00,0,0,0,0,28452,40118,3391,31495,0,0,0,0,0.00,0.00,0.00,0.00
2016-08-01 21:50:00,0,36352,0,0.00,0,0,0,0,29308,45940,4932,37969,0,0,0,0,0.00,0.00,0.00,0.00
2016-08-01 22:00:00,0,35583,0,0.00,0,0,0,0,31417,38928,2336,35860,0,0,0,0,0.00,0.00,0.00,0.00
2016-08-01 22:10:00,0,31853,0,0.00,0,0,0,0,27098,42221,4767,30638,0,0,0,0,0.00,0.00,0.00,0.00
2016-08-01 22:20:00,0,32618,0,0.00,0,0,0,0,27402,41365,4007,31073,0,0,0,0,0.00,0.00,0.00,0.00
2016-08-01 22:30:00,0,32182,0,0.00,0,0,0,0,28755,35531,2213,32363,0,0,0,0,0.00,0.00,0.00,0.00
2016-08-01 22:40:00,0,25976,0,0.00,0,0,0,0,17360,33558,5764,27752,0,0,0,0,0.00,0.00,0.00,0.00
2016-08-01 22:50:00,0,37975,0,0.00,0,0,0,0,32204,43154,3402,37859,0,0,0,0,0.00,0.00,0.00,0.00
2016-08-01 23:00:00,0,35344,0,0.00,0,0,0,0,33153,37738,1538,34774,0,0,0,0,0.00,0.00,0.00,0.00
2016-08-01 23:10:00,0,34736,0,0.00,0,0,0,0,29354,38336,2836,34770,0,0,0,0,0.00,0.00,0.00,0.00
2016-08-01 23:20:00,0,33990,0,0.00,0,0,0,0,27679,40968,4006,33196,0,0,0,0,0.00,0.00,0.00,0.00
2016-08-01 23:30:00,0,36722,0,0.00,0,0,0,0,27748,44576,5732,35951,0,0,0,0,0.00,0.00,0.00,0.00
2016-08-01 23:40:00,0,29334,0,0.00,0,0,0,0,24781,34269,3165,28388,0,0,0,0,0.00,0.00,0.00,0.00
2016-08-01 23:50:00,0,30852,0,0.00,0,0,0,0,26233,34580,2272,30894,0,0,0,0,0.00,0.00,0.00,0.00
